Temperature
14 14 14 14 14 14 14 14 14 14 14 15 15 15 15 16 16 16 17 17 17 17 17 17 17 17 17 17 18 18 18 18 18 18 18 18 18 18 18 18 18 18 18
14 14 14 14 14 14 14 14 14 14 14 15 15 15 15 15 16 16 16 17 17 17 17 17 17 17 17 17 17 18 18 18 18 18 18 18 18 18 18 18 18 18 18
13 13 13 13 13 13 14 14 14 14 14 14 15 15 15 15 15 16 16 16 17 17 17 17 17 17 17 17 17 17 17 17 18 18 18 18 18 18 18 18 18 18 18
13 13 13 13 13 13 13 13 14 14 14 14 15 15 15 15 15 16 16 16 16 16 17 17 17 17 17 17 17 17 17 17 17 17 18 17 17 17 17 18 17 17 17
13 13 13 13 13 13 13 13 13 14 14 14 14 15 15 15 15 15 16 16 16 16 16 17 17 17 17 17 17 17 17 17 17 17 17 17 17 17 17 17 17 17 17
13 13 13 13 13 13 13 13 13 14 14 14 14 14 15 15 15 15 15 15 16 16 16 16 17 17 17 17 17 17 17 17 17 17 17 17 17 17 17 17 17 17 17
13 13 13 13 13 13 13 13 13 13 14 14 14 14 15 15 15 15 15 15 16 16 16 16 16 17 17 17 17 17 17 17 17 17 17 17 17 17 17 17 17 17 17
13 13 12 12 12 13 13 13 13 13 13 14 14 14 14 14 15 15 15 15 15 16 16 16 16 16 17 17 17 17 17 17 17 17 17 17 17 17 17 17 17 17 17
13 13 12 12 12 12 13 13 13 13 13 13 14 14 14 14 14 14 15 15 15 15 16 16 16 16 16 16 16 16 17 17 17 17 17 17 17 17 17 17 17 17 17
13 13 12 12 12 12 12 12 13 13 13 13 13 14 14 14 14 14 14 15 15 15 15 16 16 16 16 16 16 16 16 17 17 17 17 17 17 17 17 17 17 17 17
13 13 13 12 12 12 12 12 12 13 13 13 13 13 14 14 14 14 14 14 15 15 15 15 15 16 16 16 16 16 16 16 16 16 17 17 17 17 17 17 17 17 17
13 13 13 12 12 12 12 12 12 12 13 13 13 13 13 14 14 14 14 14 14 15 15 15 15 15 16 16 16 16 16 16 16 16 16 16 16 16 16 16 16 16 16
13 13 13 12 12 12 12 12 12 12 12 13 13 13 13 13 13 14 14 14 14 14 14 15 15 15 15 15 16 16 16 16 16 16 16 16 16 16 16 16 16 16 16
13 13 13 13 13 13 12 12 12 12 12 12 12 13 13 13 13 13 13 14 14 14 14 14 14 14 15 15 15 15 16 16 16 16 16 16 16 16 16 16 16 16 16
13 13 13 13 13 13 13 12 12 12 12 12 12 12 12 13 13 13 13 13 14 14 13 14 14 14 14 14 15 15 15 15 15 16 16 16 16 16 16 16 16 16 16
13 13 13 13 13 13 13 12 12 12 12 12 12 12 12 12 13 13 13 13 13 13 13 13 14 14 14 14 14 15 15 15 15 15 15 15 15 15 15 16 16 16 16
14 13 13 13 13 13 13 13 13 12 12 12 12 12 12 12 12 13 13 13 13 13 13 13 13 13 14 14 14 14 14 15 15 15 15 15 15 15 15 15 15 15 15
14 14 13 13 13 13 13 13 13 13 12 12 12 12 12 12 12 12 12 13 13 13 13 13 13 13 13 13 14 14 14 14 14 14 14 15 15 15 15 15 15 15 15
14 14 14 13 13 13 13 13 13 13 13 12 12 12 12 12 12 12 12 12 12 13 13 13 13 13 13 13 13 13 13 14 14 14 14 14 14 14 15 15 15 15 15
14 14 14 14 13 13 13 13 13 13 13 13 12 12 12 12 12 12 12 12 12 12 12 12 13 13 13 13 13 13 13 13 13 14 14 14 14 14 14 14 14 14 14
14 14 14 14 14 13 13 13 13 13 13 13 13 13 13 12 12 12 12 12 12 12 12 12 12 12 12 12 12 13 13 13 13 13 13 13 13 13 14 14 14 14 14
15 14 14 14 14 14 13 13 13 13 13 13 13 13 13 13 12 12 12 12 12 12 12 12 12 12 12 12 12 12 12 13 13 13 13 13 13 13 13 13 13 13 14
15 15 14 14 14 14 14 14 13 13 13 13 13 13 13 13 13 12 12 12 12 12 12 12 12 12 12 12 12 12 12 12 12 12 12 13 13 13 13 13 13 13 13
15 15 15 15 14 14 14 14 13 13 13 13 13 13 13 13 13 13 12 12 12 12 12 12 12 12 12 12 12 12 12 12 12 12 12 12 12 12 12 12 13 13 13
16 15 15 15 15 15 14 14 14 13 13 13 13 13 13 13 13 12 12 12 12 12 12 12 12 12 12 12 12 12 11 11 11 12 12 12 12 12 12 12 12 12 12
16 16 15 15 15 15 14 14 14 13 13 13 13 13 13 13 13 12 12 12 12 12 12 12 12 12 12 11 11 11 11 11 11 11 11 11 11 11 11 11 11 11 11
Wind_Speed
2 2 2 3 3 4 3 3 3 3 2 2 2 2 2 3 3 3 4 6 6 6 6 6 7 7 8 8 9 9 9 9 9 9 10 10 11 11 11 12 12 12 11
1 1 2 2 3 4 3 2 3 2 2 2 2 2 2 2 3 3 4 5 5 5 5 5 6 8 8 8 9 10 10 10 10 10 11 11 11 11 12 12 12 11 11
2 2 2 3 3 4 4 3 2 2 2 2 2 2 2 2 2 2 2 3 3 3 4 5 5 7 8 9 9 10 10 11 10 11 11 11 11 12 12 12 12 11 11
2 2 2 2 3 4 3 2 2 2 2 2 2 2 1 1 2 1 1 1 2 2 3 4 5 6 7 8 9 10 10 11 11 11 12 12 12 12 13 12 12 12 11
3 2 2 2 4 3 3 3 2 1 2 3 2 1 1 1 2 1 0 1 1 1 2 3 4 5 6 7 8 9 10 11 11 11 12 12 12 12 13 12 12 12 11
3 2 1 3 3 3 3 3 2 2 1 2 2 2 2 1 1 1 1 0 0 1 1 1 1 2 4 6 7 7 9 11 11 12 12 13 13 13 13 13 12 12 12
3 2 2 3 3 3 3 3 2 2 2 2 1 2 3 2 2 1 1 0 0 0 1 1 1 1 2 4 5 6 8 10 11 11 12 13 13 13 13 13 13 12 12
3 2 2 2 2 3 4 4 2 2 2 2 1 1 2 3 3 3 2 1 1 0 0 1 1 1 2 2 4 5 6 8 9 11 12 13 14 14 14 13 13 13 12
3 2 2 2 2 2 2 3 2 2 2 2 2 1 2 1 2 2 2 3 2 1 1 1 1 2 2 3 3 4 5 7 8 10 11 12 13 14 14 14 13 12 12
2 2 2 2 2 2 2 3 2 1 1 1 2 1 1 2 1 1 2 2 2 2 2 1 1 2 2 2 2 3 4 4 6 8 9 10 12 13 13 14 14 14 14
2 2 2 2 2 2 2 3 2 2 1 0 1 1 1 2 1 2 1 2 2 2 2 2 1 2 2 2 2 2 3 4 5 6 7 9 10 11 12 13 13 14 14
3 3 1 1 2 2 2 2 2 1 1 1 1 1 1 1 0 1 1 0 1 2 2 2 2 2 2 2 2 2 2 3 4 4 5 6 8 9 11 12 12 13 13
2 3 1 2 2 2 2 1 1 2 1 1 1 1 0 0 1 1 2 1 1 2 2 2 2 2 3 3 2 3 2 2 2 2 3 4 6 8 9 10 11 12 13
4 3 2 2 2 2 2 1 1 1 1 1 1 1 1 1 0 1 2 2 1 2 2 2 2 2 3 3 2 3 2 1 0 1 2 3 5 6 7 8 9 10 12
3 4 3 3 2 2 1 0 1 1 1 1 1 1 1 1 1 0 1 2 3 1 1 2 2 2 3 3 3 2 2 1 1 1 2 3 4 6 7 7 8 9 10
3 3 3 3 2 2 1 0 1 1 0 1 1 1 1 1 1 1 1 1 2 3 1 1 1 2 2 2 3 2 1 1 1 1 1 2 3 5 6 7 7 8 8
4 4 4 3 3 2 1 1 1 1 0 1 1 0 1 1 1 1 1 1 1 2 2 1 1 1 1 2 2 3 2 1 1 0 0 1 2 3 4 5 6 6 7
5 5 4 3 3 3 2 2 3 2 1 1 1 1 1 0 0 1 0 0 0 1 2 1 1 2 2 1 1 1 2 2 2 1 1 2 2 3 4 5 6 6 7
5 5 4 5 5 4 4 4 3 3 3 3 2 2 2 1 1 1 1 1 0 1 1 2 0 1 2 1 2 2 2 2 3 2 2 1 2 3 4 5 6 7 7
6 6 6 6 5 5 4 4 4 3 3 3 3 3 3 3 3 3 2 1 1 2 2 2 0 1 1 1 1 1 2 2 2 3 3 3 3 3 3 3 4 5 6
8 7 6 5 5 5 5 6 5 5 4 4 3 3 4 5 5 4 3 3 3 2 2 1 1 0 1 1 0 0 0 2 2 2 2 2 2 2 2 3 3 3 5
7 7 7 7 6 6 8 10 8 5 5 5 5 4 4 5 5 6 6 6 6 4 4 3 2 2 2 2 1 1 1 1 1 2 1 2 1 2 2 2 3 3 3
8 8 8 8 8 9 10 10 11 7 6 6 6 5 4 4 4 3 4 5 4 5 6 5 4 4 3 4 3 2 2 1 1 2 1 2 2 2 2 4 4 2 1
9 9 9 9 8 9 12 11 11 8 6 6 6 6 6 5 4 5 4 3 2 3 4 4 4 4 4 4 4 3 2 1 1 1 0 1 2 2 2 4 5 4 3
10 9 8 10 10 10 12 12 10 6 6 7 6 6 7 6 8 8 6 5 3 2 3 5 5 3 3 3 4 3 2 1 1 1 0 0 1 2 2 2 3 5 6
11 10 10 10 11 10 11 13 12 6 6 6 5 5 9 9 9 9 7 6 6 4 3 2 2 1 1 1 3 3 3 2 1 1 1 0 1 1 2 2 2 4 5
Wind_Direction
12 5 354 354 356 357 346 333 332 329 327 315 298 271 259 253 249 253 270 281 271 259 245 228 214 216 213 205 195 192 185 178 173 166 162 157 152 148 146 141 136 134 133
50 22 2 354 350 345 336 324 320 317 307 298 299 282 263 260 251 253 268 281 271 255 250 236 221 220 215 210 203 197 192 183 178 173 168 164 160 156 154 149 145 142 140
55 46 16 358 339 340 341 339 338 336 318 313 305 295 270 265 251 248 265 276 274 257 251 246 231 225 219 214 205 201 195 187 180 178 175 171 169 165 160 158 155 151 148
42 45 20 349 340 348 349 338 340 330 326 321 308 303 298 289 275 243 250 278 273 262 257 247 241 232 223 218 211 204 196 190 184 182 179 176 173 171 167 166 164 162 158
28 38 7 343 350 355 352 340 350 319 311 315 299 298 307 292 292 287 300 268 249 234 248 253 244 234 224 220 216 209 199 194 189 187 184 180 178 177 174 173 173 170 168
12 24 9 354 358 359 354 350 331 334 307 306 328 1 339 326 333 354 328 282 229 213 172 216 226 232 220 219 213 208 202 198 194 193 190 186 184 184 182 181 180 180 178
3 15 1 356 359 358 343 340 337 346 351 343 24 10 360 8 26 22 348 320 5 19 110 129 148 189 206 207 203 205 206 204 199 197 196 193 191 190 189 189 188 187 187
349 356 3 351 354 356 355 357 7 360 354 12 55 63 13 4 5 16 14 15 19 65 89 91 121 153 163 168 186 196 203 205 205 203 203 200 195 194 194 194 196 195 194
335 346 348 342 350 2 342 342 357 25 353 355 30 110 124 209 324 349 9 22 22 44 27 36 108 121 152 165 173 195 206 208 206 207 207 204 199 198 198 199 200 201 201
331 336 340 348 347 348 340 332 9 13 29 347 349 23 113 174 134 3 348 358 20 30 15 19 62 98 127 135 166 185 198 202 203 209 208 205 201 203 204 203 204 206 208
323 326 330 348 340 338 339 344 357 15 27 49 348 350 28 44 78 121 1 345 1 359 7 14 34 58 84 104 120 162 189 195 197 206 209 208 205 207 208 208 209 210 212
305 309 313 337 323 322 329 332 339 7 18 46 53 54 82 73 83 111 139 352 343 336 355 19 33 30 49 67 90 107 156 185 195 203 208 207 205 210 215 212 213 215 217
271 278 291 296 299 302 311 327 351 0 12 38 46 37 47 135 177 145 137 138 38 348 356 9 9 14 40 49 50 73 92 118 169 196 210 214 208 212 219 219 219 222 224
245 257 262 269 281 299 313 338 352 335 17 28 29 33 28 7 38 156 157 147 89 20 19 350 341 2 16 33 48 70 52 54 82 216 227 229 220 213 214 217 223 228 230
243 245 246 261 274 287 295 312 345 342 28 28 14 27 32 355 17 29 146 158 148 126 350 327 343 341 356 22 32 64 49 28 5 275 250 237 234 223 216 217 223 229 232
236 239 244 251 259 263 268 265 289 302 14 337 337 38 34 2 17 29 76 126 149 154 172 278 307 316 337 21 33 46 33 25 358 312 273 260 252 240 229 225 228 231 231
224 229 232 235 237 236 236 243 259 259 238 310 326 12 337 10 33 22 57 84 114 141 158 285 321 328 4 21 13 22 31 52 27 136 241 265 259 254 238 229 230 233 235
224 222 220 222 230 227 221 229 250 238 221 246 267 261 279 277 39 12 67 102 141 155 156 172 353 360 6 353 11 18 5 20 10 342 303 270 270 264 247 238 235 237 239
222 220 211 216 225 225 224 229 228 228 226 233 235 232 246 202 228 236 216 196 180 112 125 150 25 1 358 355 26 21 10 1 358 4 13 352 309 277 254 243 240 240 240
214 216 213 218 222 223 222 225 220 220 226 235 231 226 225 215 219 214 210 208 161 113 105 116 113 3 350 342 46 28 6 6 350 356 10 360 348 318 282 259 249 247 245
215 214 214 220 223 221 222 215 215 216 220 233 241 237 235 231 225 210 197 190 165 147 137 143 188 334 323 4 16 338 351 340 340 355 346 340 340 335 327 305 281 270 257
215 210 213 216 224 229 231 219 207 208 212 220 236 247 249 245 243 232 219 197 183 176 178 175 193 201 228 223 201 175 157 42 328 337 357 320 336 315 323 320 303 294 277
210 212 216 214 224 235 238 229 213 199 207 218 225 234 242 230 222 215 221 207 206 209 194 177 189 212 212 207 180 180 185 185 237 294 8 316 331 316 318 338 343 347 355
211 215 218 215 221 234 234 231 218 200 208 220 222 221 226 236 222 201 190 190 212 229 213 196 198 214 216 202 186 178 175 183 289 306 170 278 319 309 320 341 7 32 39
216 215 214 211 216 231 230 225 211 195 213 227 228 221 218 226 233 206 183 191 209 241 223 198 199 202 201 193 171 142 141 133 320 322 26 214 303 310 315 333 5 28 32
221 217 219 215 213 222 224 219 205 193 209 224 227 227 223 221 224 201 187 188 201 215 180 154 132 84 73 110 166 169 171 169 184 254 296 199 296 344 332 326 353 7 16
Height
1518 1517 1515 1514 1513 1512 1511 1511 1510 1509 1509 1508 1508 1509 1509 1510 1511 1512 1513 1515 1516 1518 1519 1521 1522 1524 1525 1527 1528 1530 1531 1533 1534 1536 1538 1539 1541 1542 1544 1545 1547 1548 1550
1517 1516 1514 1513 1512 1511 1510 1509 1508 1507 1507 1507 1507 1507 1507 1508 1509 1510 1511 1513 1514 1516 1517 1519 1521 1522 1524 1526 1527 1529 1531 1532 1534 1536 1538 1540 1541 1543 1545 1546 1548 1549 1550
1516 1515 1513 1512 1510 1509 1508 1507 1506 1506 1505 1505 1505 1505 1505 1506 1507 1508 1509 1511 1512 1514 1515 1517 1519 1521 1523 1525 1526 1528 1530 1532 1534 1536 1538 1540 1541 1543 1545 1547 1548 1550 1551
1515 1514 1512 1511 1509 1508 1506 1505 1504 1504 1504 1503 1503 1503 1504 1504 1505 1506 1507 1509 1510 1512 1514 1516 1517 1519 1521 1523 1525 1527 1529 1531 1533 1535 1537 1539 1541 1543 1545 1547 1549 1550 1552
1515 1513 1512 1510 1508 1507 1505 1504 1503 1502 1502 1502 1501 1502 1502 1502 1503 1504 1505 1507 1508 1510 1512 1514 1516 1518 1520 1521 1523 1525 1528 1530 1532 1534 1536 1539 1541 1543 1545 1546 1548 1550 1552
1514 1513 1511 1510 1508 1506 1505 1503 1502 1501 1501 1501 1500 1500 1500 1501 1501 1502 1503 1505 1507 1508 1510 1512 1514 1516 1518 1520 1522 1524 1526 1528 1531 1533 1535 1538 1540 1542 1544 1546 1548 1550 1551
1513 1512 1511 1509 1508 1506 1504 1503 1502 1501 1500 1500 1500 1499 1499 1499 1500 1501 1502 1503 1505 1507 1509 1510 1512 1514 1516 1518 1520 1522 1524 1527 1529 1532 1534 1536 1539 1541 1543 1545 1547 1549 1551
1513 1512 1511 1509 1507 1506 1504 1503 1502 1501 1500 1500 1500 1499 1499 1500 1499 1500 1501 1502 1503 1505 1507 1509 1511 1513 1515 1517 1519 1521 1523 1525 1528 1530 1532 1535 1537 1539 1542 1544 1546 1548 1550
1513 1512 1510 1509 1507 1506 1504 1503 1502 1501 1500 1500 1499 1500 1499 1499 1500 1501 1501 1501 1503 1504 1506 1507 1509 1511 1513 1515 1517 1519 1522 1524 1526 1528 1531 1533 1535 1538 1540 1542 1544 1546 1548
1513 1512 1510 1509 1507 1506 1505 1504 1502 1501 1501 1500 1499 1499 1500 1499 1500 1500 1501 1501 1502 1503 1505 1506 1508 1510 1512 1514 1516 1517 1520 1522 1524 1526 1529 1531 1533 1536 1538 1540 1542 1544 1546
1512 1511 1510 1509 1507 1506 1505 1504 1503 1502 1501 1500 1499 1499 1499 1499 1499 1500 1500 1501 1502 1503 1504 1506 1507 1508 1510 1512 1514 1516 1518 1520 1522 1524 1527 1529 1531 1533 1536 1538 1540 1542 1544
1512 1511 1510 1509 1507 1506 1505 1504 1503 1502 1501 1500 1500 1499 1499 1499 1499 1500 1500 1501 1502 1503 1504 1505 1506 1507 1509 1510 1512 1514 1516 1518 1520 1522 1524 1526 1529 1531 1533 1535 1537 1539 1541
1511 1511 1510 1509 1507 1506 1505 1504 1503 1502 1501 1500 1500 1499 1499 1499 1499 1500 1500 1500 1501 1502 1503 1504 1505 1506 1507 1509 1510 1512 1514 1516 1518 1520 1522 1524 1526 1528 1530 1532 1534 1536 1538
1510 1510 1509 1508 1507 1506 1505 1504 1503 1502 1502 1501 1500 1499 1499 1499 1499 1499 1500 1500 1501 1502 1502 1503 1504 1505 1506 1507 1509 1510 1512 1514 1516 1518 1520 1521 1523 1525 1527 1529 1531 1532 1534
1509 1509 1508 1508 1507 1506 1505 1504 1503 1502 1501 1501 1500 1500 1499 1499 1499 1499 1499 1500 1501 1501 1502 1503 1503 1504 1505 1506 1508 1509 1510 1512 1514 1515 1517 1519 1520 1522 1524 1526 1527 1529 1531
1508 1508 1507 1507 1506 1505 1505 1504 1503 1502 1501 1501 1500 1500 1499 1499 1499 1499 1499 1499 1500 1501 1501 1502 1502 1503 1504 1505 1506 1507 1508 1510 1511 1513 1514 1516 1517 1519 1520 1522 1524 1526 1527
1507 1506 1506 1506 1505 1504 1504 1503 1503 1502 1501 1500 1500 1499 1499 1499 1499 1498 1498 1498 1499 1500 1500 1501 1502 1502 1503 1504 1505 1506 1507 1508 1509 1510 1511 1513 1514 1515 1517 1518 1520 1522 1523
1505 1505 1505 1504 1504 1503 1503 1502 1502 1501 1501 1500 1499 1499 1499 1498 1498 1498 1498 1498 1498 1498 1499 1499 1500 1501 1501 1502 1503 1504 1504 1505 1506 1507 1508 1510 1511 1512 1513 1515 1516 1518 1519
1502 1502 1502 1502 1502 1502 1502 1501 1501 1500 1500 1500 1499 1498 1498 1498 1498 1497 1497 1497 1497 1497 1498 1498 1499 1499 1500 1501 1501 1502 1503 1504 1504 1505 1506 1507 1507 1508 1510 1511 1512 1513 1515
1499 1500 1500 1500 1500 1500 1500 1500 1499 1499 1499 1499 1498 1498 1497 1497 1497 1497 1496 1496 1496 1496 1497 1497 1497 1498 1499 1499 1499 1500 1501 1502 1502 1503 1503 1504 1504 1505 1506 1507 1508 1509 1510
1496 1496 1497 1497 1497 1497 1498 1498 1498 1497 1497 1497 1497 1497 1496 1496 1496 1496 1496 1495 1495 1495 1496 1496 1496 1497 1497 1497 1498 1499 1499 1499 1500 1500 1501 1502 1502 1502 1503 1504 1504 1505 1506
1492 1492 1493 1493 1494 1494 1495 1495 1495 1495 1495 1495 1495 1495 1495 1495 1495 1495 1495 1494 1494 1495 1495 1495 1495 1495 1495 1496 1496 1497 1497 1497 1498 1499 1499 1499 1500 1500 1500 1500 1501 1501 1502
1487 1488 1489 1489 1490 1491 1491 1492 1492 1492 1492 1492 1493 1493 1493 1493 1493 1493 1493 1493 1493 1493 1493 1494 1493 1494 1494 1494 1495 1495 1495 1495 1496 1496 1496 1496 1497 1497 1497 1497 1497 1498 1498
1482 1482 1483 1484 1485 1486 1487 1488 1488 1488 1488 1489 1489 1489 1490 1490 1490 1491 1491 1491 1491 1491 1491 1492 1492 1492 1492 1493 1493 1493 1493 1494 1494 1494 1494 1495 1495 1495 1495 1494 1494 1494 1494
1475 1476 1477 1479 1479 1481 1482 1483 1484 1484 1484 1484 1485 1485 1486 1486 1487 1487 1488 1488 1489 1489 1489 1490 1490 1490 1490 1490 1491 1491 1491 1492 1492 1492 1492 1492 1492 1492 1492 1492 1492 1491 1491
1468 1470 1471 1472 1473 1475 1476 1477 1478 1478 1479 1479 1480 1481 1481 1482 1483 1483 1484 1484 1485 1486 1487 1487 1487 1488 1488 1488 1488 1489 1489 1489 1489 1490 1490 1490 1490 1490 1489 1489 1489 1489 1488